EW2118 Weather Reports


time (UTC)temp
C
wind
direction
speed
KPH
gust
KPH
rain 1hr
cm
rain 24hr
cm
rain mn
cm
humidity
%
barometer
mb
20260906211404 32 124 16.1 43.5 0.00 0.00 0.00 33 1013.7
20260906211204 32 122 12.9 43.5 0.00 0.00 0.00 32 1013.7
20260906211004 32 123 16.1 43.5 0.00 0.00 0.00 32 1013.8
20260906210825 32 123 24.1 43.5 0.00 0.00 0.00 33 1013.9
20260906210604 32 123 19.3 38.6 0.00 0.00 0.00 33 1013.7
20260906210425 32 123 17.7 38.6 0.00 0.00 0.00 33 1013.8
20260906210204 32 123 22.5 38.6 0.00 0.00 0.00 33 1013.9
20260906210004 32 120 17.7 38.6 0.00 0.00 0.00 33 1013.9
20260906205804 32 122 24.1 38.6 0.00 0.00 0.00 33 1013.9
20260906205604 32 120 25.7 38.6 0.00 0.00 0.00 34 1013.8
20260906205404 32 123 16.1 33.8 0.00 0.00 0.00 34 1013.9
20260906205204 32 130 16.1 33.8 0.00 0.00 0.00 33 1013.9
20260906205004 32 132 16.1 33.8 0.00 0.00 0.00 34 1014.0
20260906204804 31 135 25.7 33.8 0.00 0.00 0.00 34 1014.0
20260906204604 31 143 17.7 33.8 0.00 0.00 0.00 34 1013.9
20260906204425 32 145 22.5 38.6 0.00 0.00 0.00 34 1013.9
20260906204204 31 145 20.9 38.6 0.00 0.00 0.00 34 1014.0
20260906204025 31 146 19.3 38.6 0.00 0.00 0.00 34 1014.0
20260906203804 31 143 20.9 38.6 0.00 0.00 0.00 34 1013.9
20260906203604 31 136 29.0 38.6 0.00 0.00 0.00 34 1014.0
20260906203404 31 132 24.1 41.8 0.00 0.00 0.00 34 1014.0
20260906203204 31 134 22.5 41.8 0.00 0.00 0.00 34 1014.1
20260906203004 31 135 16.1 41.8 0.00 0.00 0.00 34 1014.1
20260906202804 31 134 19.3 43.5 0.00 0.00 0.00 34 1014.0
20260906202604 31 134 25.7 43.5 0.00 0.00 0.00 34 1014.1
20260906202425 31 132 25.7 43.5 0.00 0.00 0.00 34 1014.0
20260906202204 31 127 27.4 43.5 0.00 0.00 0.00 34 1014.1
20260906202025 31 121 25.7 43.5 0.00 0.00 0.00 34 1014.1
20260906201804 31 122 17.7 40.2 0.00 0.00 0.00 34 1014.0
20260906201604 31 122 16.1 40.2 0.00 0.00 0.00 34 1014.2
20260906201404 31 120 24.1 40.2 0.00 0.00 0.00 34 1014.1
20260906201204 31 116 19.3 40.2 0.00 0.00 0.00 34 1014.2
20260906201025 31 117 22.5 38.6 0.00 0.00 0.00 34 1014.1
20260906200804 31 117 19.3 38.6 0.00 0.00 0.00 34 1014.1
20260906200604 31 123 17.7 38.6 0.00 0.00 0.00 34 1014.1
20260906200404 31 121 24.1 38.6 0.00 0.00 0.00 34 1014.1
20260906200225 31 117 16.1 38.6 0.00 0.00 0.00 34 1014.1
20260906200004 32 113 19.3 38.6 0.00 0.00 0.00 34 1014.1
20260906195825 31 112 25.7 38.6 0.00 0.00 0.00 35 1014.2
20260906195604 31 107 22.5 37.0 0.00 0.00 0.00 35 1014.1
20260906195404 31 113 22.5 38.6 0.00 0.00 0.00 34 1014.1
20260906195225 31 118 22.5 51.5 0.00 0.00 0.00 35 1014.1
20260906195004 31 124 20.9 51.5 0.00 0.00 0.00 35 1014.2
20260906194804 31 123 20.9 51.5 0.00 0.00 0.00 34 1014.3
20260906194604 32 123 24.1 51.5 0.00 0.00 0.00 34 1014.3
20260906194404 31 123 24.1 51.5 0.00 0.00 0.00 35 1014.1
20260906194204 32 126 25.7 38.6 0.00 0.00 0.00 34 1014.2
20260906194004 32 124 22.5 38.6 0.00 0.00 0.00 34 1014.1
20260906193804 32 123 16.1 38.6 0.00 0.00 0.00 34 1014.2
20260906193604 31 124 16.1 40.2 0.00 0.00 0.00 34 1014.2
20260906193404 31 121 27.4 40.2 0.00 0.00 0.00 34 1014.2
20260906193204 31 117 19.3 40.2 0.00 0.00 0.00 34 1014.1
20260906193004 31 126 22.5 40.2 0.00 0.00 0.00 34 1014.2
20260906192825 31 132 22.5 40.2 0.00 0.00 0.00 34 1014.2
20260906192604 31 137 17.7 40.2 0.00 0.00 0.00 34 1014.2
20260906192404 31 139 19.3 40.2 0.00 0.00 0.00 34 1014.1
20260906192204 31 141 25.7 40.2 0.00 0.00 0.00 34 1014.3
20260906192004 31 137 24.1 40.2 0.00 0.00 0.00 34 1014.2
20260906191804 31 136 24.1 38.6 0.00 0.00 0.00 34 1014.2
20260906191604 31 134 20.9 38.6 0.00 0.00 0.00 35 1014.2
20260906191425 31 137 22.5 38.6 0.00 0.00 0.00 34 1014.4
20260906191204 31 135 24.1 38.6 0.00 0.00 0.00 34 1014.4
20260906191025 31 134 25.7 38.6 0.00 0.00 0.00 34 1014.4
20260906190804 31 132 17.7 38.6 0.00 0.00 0.00 34 1014.4
20260906190625 31 132 25.7 38.6 0.00 0.00 0.00 34 1014.4
20260906190404 32 124 17.7 38.6 0.00 0.00 0.00 34 1014.3
20260906190204 32 127 20.9 38.6 0.00 0.00 0.00 34 1014.3
20260906190004 32 132 17.7 38.6 0.00 0.00 0.00 34 1014.5
20260906185804 32 134 19.3 38.6 0.00 0.00 0.00 34 1014.6
20260906185604 31 136 19.3 37.0 0.00 0.00 0.00 34 1014.5
20260906185404 31 139 24.1 37.0 0.00 0.00 0.00 33 1014.6
20260906185204 32 141 22.5 37.0 0.00 0.00 0.00 34 1014.6
20260906185004 32 140 22.5 37.0 0.00 0.00 0.00 34 1014.5
20260906184804 32 135 24.1 37.0 0.00 0.00 0.00 33 1014.6
20260906184604 32 136 24.1 37.0 0.00 0.00 0.00 33 1014.6
20260906184404 32 139 24.1 37.0 0.00 0.00 0.00 34 1014.7
20260906184204 32 139 17.7 37.0 0.00 0.00 0.00 33 1014.7
20260906184004 32 136 19.3 37.0 0.00 0.00 0.00 33 1014.6
20260906183804 32 141 22.5 37.0 0.00 0.00 0.00 33 1014.8
20260906183604 32 141 22.5 37.0 0.00 0.00 0.00 33 1014.7
20260906183404 32 139 14.5 37.0 0.00 0.00 0.00 34 1014.8
20260906183204 31 141 17.7 37.0 0.00 0.00 0.00 33 1014.8
20260906183004 32 143 20.9 37.0 0.00 0.00 0.00 34 1014.7
20260906182804 32 140 24.1 37.0 0.00 0.00 0.00 33 1014.8
20260906182604 32 140 20.9 37.0 0.00 0.00 0.00 33 1014.8
20260906182404 32 142 22.5 37.0 0.00 0.00 0.00 33 1014.8
20260906182204 32 141 20.9 37.0 0.00 0.00 0.00 33 1014.8
20260906182004 32 139 20.9 37.0 0.00 0.00 0.00 32 1014.7
20260906181804 32 140 19.3 37.0 0.00 0.00 0.00 33 1014.8
20260906181604 32 138 14.5 37.0 0.00 0.00 0.00 33 1014.9
20260906181404 32 137 19.3 37.0 0.00 0.00 0.00 33 1014.8
20260906181204 32 135 22.5 37.0 0.00 0.00 0.00 33 1015.0
20260906181004 32 136 17.7 35.4 0.00 0.00 0.00 32 1015.0
20260906180804 32 134 17.7 32.2 0.00 0.00 0.00 32 1015.0
20260906180604 32 137 19.3 32.2 0.00 0.00 0.00 33 1015.0
20260906180404 32 139 17.7 32.2 0.00 0.00 0.00 33 1015.1
20260906180204 32 137 20.9 32.2 0.00 0.00 0.00 32 1015.0
20260906180004 32 141 11.3 32.2 0.00 0.00 0.00 33 1015.0
20260906175804 32 145 17.7 32.2 0.00 0.00 0.00 33 1015.1
20260906175604 32 147 20.9 35.4 0.00 0.00 0.00 33 1015.1
20260906175404 32 148 19.3 35.4 0.00 0.00 0.00 32 1015.1
20260906175204 32 150 17.7 35.4 0.00 0.00 0.00 32 1015.0
20260906175004 32 153 12.9 35.4 0.00 0.00 0.00 34 1015.1
20260906174825 31 156 19.3 35.4 0.00 0.00 0.00 33 1015.1
20260906174604 31 158 12.9 32.2 0.00 0.00 0.00 33 1015.1
20260906174425 31 161 17.7 32.2 0.00 0.00 0.00 33 1015.2
20260906174204 31 164 16.1 32.2 0.00 0.00 0.00 33 1015.1
20260906174025 31 166 14.5 32.2 0.00 0.00 0.00 34 1015.2
20260906173804 31 163 17.7 32.2 0.00 0.00 0.00 34 1015.3
20260906173604 31 161 14.5 32.2 0.00 0.00 0.00 34 1015.3
20260906173404 31 162 17.7 33.8 0.00 0.00 0.00 34 1015.3
20260906173225 31 159 19.3 33.8 0.00 0.00 0.00 34 1015.3
20260906173025 31 158 19.3 35.4 0.00 0.00 0.00 34 1015.5
20260906172804 31 153 11.3 35.4 0.00 0.00 0.00 34 1015.5
20260906172604 31 149 19.3 37.0 0.00 0.00 0.00 34 1015.5
20260906172404 31 143 16.1 40.2 0.00 0.00 0.00 34 1015.5
20260906172204 31 141 19.3 40.2 0.00 0.00 0.00 34 1015.6
20260906172004 31 139 20.9 40.2 0.00 0.00 0.00 33 1015.6
20260906171804 31 139 20.9 40.2 0.00 0.00 0.00 34 1015.7
20260906171604 31 141 25.7 40.2 0.00 0.00 0.00 34 1015.7
20260906171404 31 141 19.3 38.6 0.00 0.00 0.00 34 1015.7
20260906171204 31 147 22.5 38.6 0.00 0.00 0.00 34 1015.7
20260906171025 31 147 24.1 35.4 0.00 0.00 0.00 33 1015.7
20260906170804 31 155 14.5 29.0 0.00 0.00 0.00 33 1015.6
20260906170604 31 160 14.5 29.0 0.00 0.00 0.00 33 1015.8
20260906170404 31 165 17.7 29.0 0.00 0.00 0.00 34 1015.9
20260906170204 31 165 19.3 29.0 0.00 0.00 0.00 33 1015.8
20260906170004 31 170 11.3 27.4 0.00 0.00 0.00 34 1015.8
20260906165804 31 166 14.5 35.4 0.00 0.00 0.00 34 1015.8
20260906165604 31 165 11.3 35.4 0.00 0.00 0.00 34 1015.8
20260906165404 31 165 12.9 35.4 0.00 0.00 0.00 34 1015.9
20260906165204 31 162 9.7 35.4 0.00 0.00 0.00 34 1015.9
20260906165004 31 165 12.9 35.4 0.00 0.00 0.00 34 1015.9
20260906164804 31 165 12.9 29.0 0.00 0.00 0.00 34 1015.9
20260906164604 31 162 12.9 32.2 0.00 0.00 0.00 34 1015.9
20260906164404 31 162 12.9 32.2 0.00 0.00 0.00 34 1016.0
20260906164204 31 163 11.3 32.2 0.00 0.00 0.00 34 1016.0
20260906164004 31 163 12.9 32.2 0.00 0.00 0.00 34 1016.0
20260906163804 31 162 17.7 32.2 0.00 0.00 0.00 34 1016.1
20260906163604 31 163 17.7 32.2 0.00 0.00 0.00 34 1016.0
20260906163404 31 163 14.5 32.2 0.00 0.00 0.00 35 1016.1
20260906163225 31 163 11.3 30.6 0.00 0.00 0.00 35 1016.1
20260906163004 30 163 17.7 30.6 0.00 0.00 0.00 34 1016.1
20260906162804 30 162 17.7 30.6 0.00 0.00 0.00 35 1016.2
20260906162604 31 159 16.1 30.6 0.00 0.00 0.00 35 1016.1
20260906162404 30 160 14.5 30.6 0.00 0.00 0.00 35 1016.2
20260906162204 30 163 6.4 30.6 0.00 0.00 0.00 35 1016.2
20260906162004 30 164 14.5 30.6 0.00 0.00 0.00 35 1016.0
20260906161804 30 169 14.5 30.6 0.00 0.00 0.00 34 1016.1
20260906161604 30 175 12.9 30.6 0.00 0.00 0.00 36 1016.0
20260906161404 30 176 8.0 27.4 0.00 0.00 0.00 36 1016.1
20260906161204 30 173 11.3 27.4 0.00 0.00 0.00 36 1016.1
20260906161004 30 172 14.5 30.6 0.00 0.00 0.00 36 1016.1
20260906160804 30 173 11.3 30.6 0.00 0.00 0.00 36 1016.1
20260906160604 30 174 14.5 30.6 0.00 0.00 0.00 36 1016.1
20260906160404 30 177 16.1 30.6 0.00 0.00 0.00 36 1016.1
20260906160204 30 186 11.3 30.6 0.00 0.00 0.00 36 1016.1
20260906160025 30 188 6.4 25.7 0.00 0.00 0.00 37 1016.1
20260906155825 30 189 6.4 25.7 0.00 0.00 0.00 36 1016.1
20260906155626 30 191 8.0 25.7 0.00 0.00 0.00 36 1016.0
20260906155404 30 192 8.0 29.0 0.00 0.00 0.00 36 1016.0
20260906155204 29 190 11.3 30.6 0.00 0.00 0.00 36 1016.0
20260906155004 29 189 11.3 30.6 0.00 0.00 0.00 37 1016.0
20260906154804 29 188 8.0 30.6 0.00 0.00 0.00 36 1016.0
20260906154604 29 187 12.9 30.6 0.00 0.00 0.00 36 1016.0
20260906154425 29 189 12.9 30.6 0.00 0.00 0.00 37 1015.9
20260906154204 29 194 12.9 27.4 0.00 0.00 0.00 37 1016.0
20260906154004 29 193 9.7 29.0 0.00 0.00 0.00 37 1016.0
20260906153804 29 191 9.7 32.2 0.00 0.00 0.00 38 1016.0
20260906153604 28 185 8.0 32.2 0.00 0.00 0.00 37 1016.0
20260906153404 28 180 11.3 32.2 0.00 0.00 0.00 37 1016.1
20260906153225 28 178 12.9 32.2 0.00 0.00 0.00 38 1016.1
20260906153004 28 177 14.5 32.2 0.00 0.00 0.00 37 1016.0
20260906152825 28 180 17.7 32.2 0.00 0.00 0.00 37 1016.1
20260906152604 28 185 14.5 29.0 0.00 0.00 0.00 38 1016.1
20260906152404 28 186 9.7 27.4 0.00 0.00 0.00 38 1016.1
20260906152204 28 187 8.0 27.4 0.00 0.00 0.00 38 1016.1
20260906152004 28 186 9.7 27.4 0.00 0.00 0.00 39 1016.1
20260906151804 28 185 8.0 27.4 0.00 0.00 0.00 38 1016.1
20260906151604 28 183 9.7 27.4 0.00 0.00 0.00 39 1016.1
20260906151404 28 184 9.7 27.4 0.00 0.00 0.00 39 1016.1
20260906151204 28 182 9.7 27.4 0.00 0.00 0.00 39 1016.0
20260906151004 28 183 8.0 27.4 0.00 0.00 0.00 40 1016.1
20260906150825 28 181 12.9 27.4 0.00 0.00 0.00 40 1016.1
20260906150604 28 181 8.0 25.7 0.00 0.00 0.00 40 1016.0
20260906150404 28 182 11.3 25.7 0.00 0.00 0.00 40 1016.1
20260906150204 27 182 8.0 25.7 0.00 0.00 0.00 40 1016.2
20260906150025 27 182 12.9 25.7 0.00 0.00 0.00 40 1016.2
20260906145804 27 185 8.0 25.7 0.00 0.00 0.00 41 1016.3
20260906145604 27 187 9.7 25.7 0.00 0.00 0.00 42 1016.3
20260906145404 27 185 11.3 25.7 0.00 0.00 0.00 41 1016.3
20260906145204 27 184 8.0 25.7 0.00 0.00 0.00 42 1016.2
20260906145004 27 181 9.7 25.7 0.00 0.00 0.00 42 1016.2
20260906144804 27 181 8.0 24.1 0.00 0.00 0.00 42 1016.3
20260906144604 27 182 8.0 24.1 0.00 0.00 0.00 42 1016.4
20260906144425 27 182 11.3 24.1 0.00 0.00 0.00 43 1016.3
20260906144204 27 192 9.7 24.1 0.00 0.00 0.00 42 1016.3
20260906144004 27 202 8.0 24.1 0.00 0.00 0.00 42 1016.4
20260906143825 27 206 8.0 25.7 0.00 0.00 0.00 43 1016.4
20260906143625 27 211 6.4 25.7 0.00 0.00 0.00 44 1016.4
20260906143404 27 216 4.8 25.7 0.00 0.00 0.00 45 1016.4
20260906143204 26 215 9.7 25.7 0.00 0.00 0.00 44 1016.3
20260906143004 26 220 11.3 25.7 0.00 0.00 0.00 46 1016.3
20260906142825 26 222 9.7 22.5 0.00 0.00 0.00 45 1016.4
20260906142625 26 224 12.9 22.5 0.00 0.00 0.00 46 1016.3
20260906142404 26 224 11.3 22.5 0.00 0.00 0.00 46 1016.3
20260906142204 26 224 14.5 22.5 0.00 0.00 0.00 46 1016.3
20260906142004 26 221 12.9 25.7 0.00 0.00 0.00 47 1016.3
20260906141804 26 219 12.9 25.7 0.00 0.00 0.00 47 1016.3
20260906141604 26 217 14.5 25.7 0.00 0.00 0.00 47 1016.4
20260906141404 26 215 12.9 25.7 0.00 0.00 0.00 46 1016.3
20260906141204 26 214 14.5 25.7 0.00 0.00 0.00 47 1016.3
20260906141004 26 212 9.7 19.3 0.00 0.00 0.00 47 1016.4
20260906140804 26 212 12.9 19.3 0.00 0.00 0.00 47 1016.4
20260906140604 25 211 11.3 19.3 0.00 0.00 0.00 48 1016.4
20260906140404 25 211 9.7 19.3 0.00 0.00 0.00 48 1016.4
20260906140204 25 211 6.4 19.3 0.00 0.00 0.00 48 1016.4
20260906140004 25 212 6.4 19.3 0.00 0.00 0.00 48 1016.3
20260906135804 25 212 9.7 19.3 0.00 0.00 0.00 49 1016.2
20260906135604 25 212 9.7 19.3 0.00 0.00 0.00 48 1016.3
20260906135404 25 213 11.3 19.3 0.00 0.00 0.00 49 1016.3
20260906135225 25 214 8.0 19.3 0.00 0.00 0.00 49 1016.3
20260906135004 25 215 9.7 19.3 0.00 0.00 0.00 49 1016.3
20260906134825 25 214 9.7 19.3 0.00 0.00 0.00 50 1016.2
20260906134604 25 215 8.0 19.3 0.00 0.00 0.00 50 1016.2
20260906134404 24 214 6.4 16.1 0.00 0.00 0.00 50 1016.1
20260906134204 24 216 8.0 16.1 0.00 0.00 0.00 50 1016.1
20260906134004 24 215 8.0 19.3 0.00 0.00 0.00 51 1016.1
20260906133804 24 215 6.4 19.3 0.00 0.00 0.00 51 1016.1
20260906133604 24 217 8.0 19.3 0.00 0.00 0.00 52 1016.1
20260906133404 23 217 9.7 22.5 0.00 0.00 0.00 53 1016.1
20260906133225 23 215 9.7 22.5 0.00 0.00 0.00 52 1016.1
20260906133004 23 215 9.7 22.5 0.00 0.00 0.00 53 1016.0
20260906132825 23 214 8.0 22.5 0.00 0.00 0.00 53 1016.1
20260906132604 23 212 9.7 22.5 0.00 0.00 0.00 54 1016.1
20260906132404 23 209 8.0 20.9 0.00 0.00 0.00 54 1016.1
20260906132204 23 207 9.7 20.9 0.00 0.00 0.00 54 1016.2
20260906132004 23 200 8.0 14.5 0.00 0.00 0.00 55 1016.2
20260906131804 23 197 6.4 14.5 0.00 0.00 0.00 55 1016.2
20260906131604 22 193 4.8 14.5 0.00 0.00 0.00 55 1016.3
20260906131404 22 192 3.2 14.5 0.00 0.00 0.00 56 1016.3
20260906131204 22 193 4.8 14.5 0.00 0.00 0.00 57 1016.4
20260906131004 22 193 3.2 12.9 0.00 0.00 0.00 57 1016.4
20260906130804 22 192 3.2 12.9 0.00 0.00 0.00 58 1016.4
20260906130604 22 193 4.8 12.9 0.00 0.00 0.00 58 1016.3
20260906130425 22 194 4.8 12.9 0.00 0.00 0.00 58 1016.3
20260906130225 21 191 4.8 12.9 0.00 0.00 0.00 58 1016.2
20260906130004 21 201 3.2 9.7 0.00 0.00 0.00 59 1016.2
20260906125804 21 207 3.2 11.3 0.00 0.00 0.00 60 1016.2
20260906125604 21 210 1.6 16.1 0.00 0.00 0.00 60 1016.1
20260906125404 21 213 3.2 16.1 0.00 0.00 0.00 61 1016.1
20260906125204 21 215 4.8 16.1 0.00 0.00 0.00 61 1016.0
20260906125004 21 215 8.0 19.3 0.00 0.00 0.00 62 1015.9
20260906124804 21 216 8.0 19.3 0.00 0.00 0.00 62 1015.9
20260906124604 20 216 9.7 19.3 0.00 0.00 0.00 62 1015.8
20260906124404 20 215 8.0 19.3 0.00 0.00 0.00 62 1015.8
20260906124204 20 214 9.7 19.3 0.00 0.00 0.00 62 1015.8
20260906124004 20 214 9.7 19.3 0.00 0.00 0.00 62 1015.9
20260906123804 20 214 4.8 11.3 0.00 0.00 0.00 61 1015.9
20260906123604 20 214 6.4 11.3 0.00 0.00 0.00 61 1015.9
20260906123404 20 214 6.4 12.9 0.00 0.00 0.00 62 1015.9
20260906123204 20 215 8.0 12.9 0.00 0.00 0.00 62 1015.9
20260906123004 20 214 8.0 12.9 0.00 0.00 0.00 62 1015.9
20260906122804 20 213 8.0 12.9 0.00 0.00 0.00 62 1015.9
20260906122604 20 213 8.0 12.9 0.00 0.00 0.00 62 1015.9
20260906122404 20 213 6.4 11.3 0.00 0.00 0.00 62 1015.9
20260906122204 20 211 6.4 11.3 0.00 0.00 0.00 62 1015.8
20260906122025 20 211 6.4 11.3 0.00 0.00 0.00 62 1015.9
20260906121804 20 210 6.4 11.3 0.00 0.00 0.00 62 1015.8
20260906121604 20 210 6.4 11.3 0.00 0.00 0.00 62 1015.9
20260906121425 20 210 6.4 11.3 0.00 0.00 0.00 62 1015.8
20260906121204 21 212 6.4 9.7 0.00 0.00 0.00 62 1015.8
20260906121004 21 211 6.4 11.3 0.00 0.00 0.00 62 1015.8
20260906120804 21 213 4.8 12.9 0.00 0.00 0.00 62 1015.8
20260906120604 21 215 3.2 12.9 0.00 0.00 0.00 62 1015.8
20260906120425 21 216 4.8 12.9 0.00 0.00 0.00 62 1015.8
20260906120225 21 217 6.4 12.9 0.00 0.00 0.00 62 1015.8
20260906120004 21 220 8.0 14.5 0.00 0.00 0.00 62 1015.7
20260906115825 21 222 8.0 14.5 0.00 0.00 0.00 62 1015.7
20260906115604 21 222 9.7 14.5 0.00 0.00 0.00 62 1015.7
20260906115404 21 222 8.0 14.5 0.00 0.00 0.00 62 1015.7
20260906115204 21 223 9.7 14.5 0.00 0.00 0.00 62 1015.8
20260906115004 21 221 8.0 9.7 0.00 0.00 0.00 62 1015.6
20260906114804 21 220 6.4 9.7 0.00 0.00 0.00 62 1015.6
20260906114625 21 218 6.4 9.7 0.00 0.00 0.00 62 1015.6
20260906114404 21 219 4.8 11.3 0.00 0.00 0.00 61 1015.6
20260906114225 21 219 4.8 12.9 0.00 0.00 0.00 61 1015.7
20260906114004 21 219 6.4 12.9 0.00 0.00 0.00 62 1015.6
20260906113825 21 220 6.4 12.9 0.00 0.00 0.00 62 1015.6
20260906113604 21 219 8.0 12.9 0.00 0.00 0.00 62 1015.6
20260906113425 21 219 8.0 12.9 0.00 0.00 0.00 62 1015.6
20260906113204 21 219 8.0 12.9 0.00 0.00 0.00 62 1015.6
20260906113004 21 219 8.0 12.9 0.00 0.00 0.00 62 1015.6
20260906112804 21 220 9.7 14.5 0.00 0.00 0.00 62 1015.6
20260906112604 21 221 8.0 14.5 0.00 0.00 0.00 61 1015.6
20260906112404 21 222 9.7 16.1 0.00 0.00 0.00 62 1015.6
20260906112204 21 222 8.0 16.1 0.00 0.00 0.00 62 1015.6
20260906112004 21 223 8.0 19.3 0.00 0.00 0.00 62 1015.6
20260906111825 21 223 8.0 20.9 0.00 0.00 0.00 61 1015.5
20260906111625 21 223 9.7 20.9 0.00 0.00 0.00 62 1015.5
20260906111404 21 222 9.7 20.9 0.00 0.00 0.00 61 1015.5
20260906111204 21 223 12.9 20.9 0.00 0.00 0.00 61 1015.5
20260906111025 21 224 12.9 20.9 0.00 0.00 0.00 62 1015.5
20260906110804 21 222 9.7 20.9 0.00 0.00 0.00 61 1015.5
20260906110604 21 220 11.3 20.9 0.00 0.00 0.00 62 1015.5
20260906110425 21 220 12.9 20.9 0.00 0.00 0.00 62 1015.5
20260906110204 21 219 11.3 20.9 0.00 0.00 0.00 62 1015.6
20260906110004 21 216 11.3 20.9 0.00 0.00 0.00 62 1015.6
20260906105804 21 215 11.3 20.9 0.00 0.00 0.00 62 1015.6
20260906105604 21 213 11.3 19.3 0.00 0.00 0.00 62 1015.6
20260906105404 21 211 9.7 14.5 0.00 0.00 0.00 62 1015.6
20260906105204 21 209 6.4 11.3 0.00 0.00 0.00 63 1015.6
20260906105004 21 210 4.8 11.3 0.00 0.00 0.00 63 1015.7
20260906104804 21 211 4.8 11.3 0.00 0.00 0.00 63 1015.7
20260906104604 21 208 6.4 11.3 0.00 0.00 0.00 63 1015.7
20260906104425 21 207 6.4 11.3 0.00 0.00 0.00 63 1015.6
20260906104204 21 206 4.8 11.3 0.00 0.00 0.00 63 1015.6
20260906104004 21 201 3.2 11.3 0.00 0.00 0.00 63 1015.7
20260906103804 21 201 4.8 11.3 0.00 0.00 0.00 63 1015.7
20260906103604 21 204 4.8 11.3 0.00 0.00 0.00 62 1015.7
20260906103404 21 205 3.2 11.3 0.00 0.00 0.00 62 1015.7
20260906103204 21 202 3.2 11.3 0.00 0.00 0.00 62 1015.7
20260906103004 21 205 3.2 8.0 0.00 0.00 0.00 61 1015.8
20260906102825 21 204 3.2 8.0 0.00 0.00 0.00 61 1015.8
20260906102625 21 204 3.2 8.0 0.00 0.00 0.00 60 1015.7
20260906102425 21 195 1.6 9.7 0.00 0.00 0.00 60 1015.7
20260906102204 22 191 3.2 9.7 0.00 0.00 0.00 60 1015.7
20260906102004 22 183 3.2 9.7 0.00 0.00 0.00 59 1015.6
20260906101804 22 178 3.2 9.7 0.00 0.00 0.00 59 1015.7
20260906101604 22 174 4.8 9.7 0.00 0.00 0.00 59 1015.7
20260906101404 22 177 3.2 9.7 0.00 0.00 0.00 59 1015.7
20260906101204 22 178 6.4 9.7 0.00 0.00 0.00 58 1015.7
20260906101005 22 187 4.8 9.7 0.00 0.00 0.00 58 1015.7
20260906100804 22 198 3.2 6.4 0.00 0.00 0.00 58 1015.8
20260906100604 22 210 1.6 9.7 0.00 0.00 0.00 58 1015.7
20260906100405 22 211 1.6 11.3 0.00 0.00 0.00 58 1015.7
20260906100204 22 216 1.6 14.5 0.00 0.00 0.00 58 1015.8
20260906100004 22 219 3.2 14.5 0.00 0.00 0.00 58 1015.8
20260906095804 22 221 6.4 16.1 0.00 0.00 0.00 58 1015.7
20260906095604 22 222 6.4 16.1 0.00 0.00 0.00 58 1015.6
20260906095404 22 225 8.0 16.1 0.00 0.00 0.00 58 1015.6
20260906095225 22 225 9.7 19.3 0.00 0.00 0.00 57 1015.5
20260906095004 22 226 9.7 19.3 0.00 0.00 0.00 57 1015.5
20260906094804 23 226 11.3 20.9 0.00 0.00 0.00 57 1015.5
20260906094625 23 226 11.3 20.9 0.00 0.00 0.00 57 1015.5
20260906094425 23 226 11.3 20.9 0.00 0.00 0.00 57 1015.5
20260906094204 23 226 11.3 20.9 0.00 0.00 0.00 57 1015.6
20260906094004 23 226 12.9 20.9 0.00 0.00 0.00 57 1015.6
20260906093804 23 227 12.9 20.9 0.00 0.00 0.00 57 1015.7
20260906093604 23 227 9.7 24.1 0.00 0.00 0.00 57 1015.7
20260906093404 23 228 12.9 24.1 0.00 0.00 0.00 57 1015.7
20260906093204 23 230 14.5 24.1 0.00 0.00 0.00 57 1015.5
20260906093004 23 230 14.5 24.1 0.00 0.00 0.00 57 1015.6
20260906092825 23 230 14.5 24.1 0.00 0.00 0.00 58 1015.6
20260906092604 23 231 14.5 24.1 0.00 0.00 0.00 58 1015.6
20260906092404 23 231 16.1 24.1 0.00 0.00 0.00 58 1015.6
20260906092225 23 230 14.5 24.1 0.00 0.00 0.00 58 1015.5
20260906092004 23 229 16.1 24.1 0.00 0.00 0.00 58 1015.5
20260906091804 22 227 12.9 20.9 0.00 0.00 0.00 58 1015.6
20260906091604 22 226 14.5 20.9 0.00 0.00 0.00 58 1015.6
20260906091404 22 226 14.5 20.9 0.00 0.00 0.00 58 1015.5
20260906091225 22 226 14.5 20.9 0.00 0.00 0.00 58 1015.6
20260906091004 22 224 12.9 20.9 0.00 0.00 0.00 58 1015.6
20260906090825 22 225 11.3 20.9 0.00 0.00 0.00 58 1015.5
20260906090604 23 225 11.3 24.1 0.00 0.00 0.00 58 1015.5
20260906090404 23 226 14.5 24.1 0.00 0.00 0.00 58 1015.5
20260906090204 23 228 12.9 24.1 0.00 0.00 0.00 58 1015.4
20260906090004 23 229 14.5 25.7 0.00 0.00 0.00 58 1015.3
20260906085804 23 229 14.5 25.7 0.00 0.00 0.00 58 1015.3
20260906085604 22 229 16.1 27.4 0.00 0.00 0.00 59 1015.2
20260906085404 22 229 14.5 27.4 0.00 0.00 0.00 59 1015.2
20260906085204 22 229 17.7 27.4 0.00 0.00 0.00 59 1015.2
20260906085004 22 228 17.7 27.4 0.00 0.00 0.00 60 1015.1
20260906084804 22 228 17.7 27.4 0.00 0.00 0.00 60 1015.1
20260906084604 22 228 17.7 24.1 0.00 0.00 0.00 60 1015.1
20260906084404 22 226 14.5 22.5 0.00 0.00 0.00 60 1015.2
20260906084204 22 225 14.5 22.5 0.00 0.00 0.00 60 1015.4
20260906084004 22 225 14.5 24.1 0.00 0.00 0.00 60 1015.3
20260906083804 22 225 16.1 24.1 0.00 0.00 0.00 60 1015.3
20260906083604 22 225 12.9 24.1 0.00 0.00 0.00 60 1015.4
20260906083404 22 225 12.9 24.1 0.00 0.00 0.00 60 1015.4
20260906083204 22 226 12.9 24.1 0.00 0.00 0.00 60 1015.4
20260906083025 22 226 14.5 24.1 0.00 0.00 0.00 60 1015.4
20260906082825 22 225 14.5 22.5 0.00 0.00 0.00 60 1015.4
20260906082604 22 224 14.5 20.9 0.00 0.00 0.00 60 1015.4
20260906082404 22 224 12.9 20.9 0.00 0.00 0.00 60 1015.5
20260906082204 22 224 12.9 22.5 0.00 0.00 0.00 60 1015.5
20260906082025 22 223 11.3 22.5 0.00 0.00 0.00 60 1015.5
20260906081804 22 225 12.9 22.5 0.00 0.00 0.00 60 1015.5
20260906081604 22 225 14.5 24.1 0.00 0.00 0.00 60 1015.5
20260906081404 22 223 14.5 24.1 0.00 0.00 0.00 60 1015.4
20260906081204 22 223 12.9 25.7 0.00 0.00 0.00 59 1015.5
20260906081025 23 224 14.5 25.7 0.00 0.00 0.00 59 1015.4
20260906080804 23 222 14.5 33.8 0.00 0.00 0.00 59 1015.4
20260906080604 23 221 14.5 33.8 0.00 0.00 0.00 59 1015.5
20260906080404 23 221 16.1 33.8 0.00 0.00 0.00 58 1015.4
20260906080204 23 219 19.3 33.8 0.00 0.00 0.00 59 1015.4
20260906080025 23 217 16.1 33.8 0.00 0.00 0.00 58 1015.4
20260906075825 23 216 12.9 24.1 0.00 0.00 0.00 58 1015.5
20260906075604 23 214 14.5 24.1 0.00 0.00 0.00 58 1015.5
20260906075425 23 212 14.5 24.1 0.00 0.00 0.00 58 1015.6
20260906075204 23 209 12.9 22.5 0.00 0.00 0.00 58 1015.8
20260906075025 23 208 11.3 20.9 0.00 0.00 0.00 59 1015.8
20260906074804 23 205 9.7 19.3 0.00 0.00 0.00 59 1015.9
20260906074604 23 205 8.0 16.1 0.00 0.00 0.00 59 1015.9
20260906074404 22 201 8.0 14.5 0.00 0.00 0.00 59 1015.9
20260906074204 22 196 8.0 19.3 0.00 0.00 0.00 60 1015.8
20260906074004 22 188 6.4 20.9 0.00 0.00 0.00 60 1015.8
20260906073804 22 181 6.4 20.9 0.00 0.00 0.00 60 1015.9
20260906073604 22 175 6.4 20.9 0.00 0.00 0.00 60 1015.9
20260906073425 22 172 8.0 20.9 0.00 0.00 0.00 60 1015.9
20260906073204 22 169 9.7 20.9 0.00 0.00 0.00 60 1015.9
20260906073004 22 168 11.3 20.9 0.00 0.00 0.00 60 1016.0
20260906072804 22 167 9.7 19.3 0.00 0.00 0.00 60 1016.1
20260906072625 22 168 11.3 19.3 0.00 0.00 0.00 60 1016.1
20260906072404 22 172 11.3 19.3 0.00 0.00 0.00 61 1016.1
20260906072204 22 180 11.3 16.1 0.00 0.00 0.00 61 1016.0
20260906072004 22 195 8.0 16.1 0.00 0.00 0.00 61 1016.0
20260906071804 22 209 4.8 16.1 0.00 0.00 0.00 61 1015.9
20260906071604 22 213 4.8 16.1 0.00 0.00 0.00 61 1015.9
20260906071425 22 215 3.2 19.3 0.00 0.00 0.00 61 1015.9
20260906071225 22 215 6.4 19.3 0.00 0.00 0.00 61 1015.9
20260906071004 22 216 11.3 19.3 0.00 0.00 0.00 62 1015.7
20260906070804 22 215 11.3 19.3 0.00 0.00 0.00 62 1015.8
20260906070604 22 213 11.3 19.3 0.00 0.00 0.00 62 1015.8
20260906070404 22 212 9.7 14.5 0.00 0.00 0.00 62 1015.8
20260906070204 22 208 4.8 9.7 0.00 0.00 0.00 62 1015.8
20260906070004 22 201 3.2 4.8 0.00 0.00 0.00 62 1015.9
20260906065804 22 206 1.6 6.4 0.00 0.00 0.00 61 1015.9
20260906065604 22 211 1.6 6.4 0.00 0.00 0.00 61 1015.8
20260906065404 22 214 1.6 6.4 0.00 0.00 0.00 61 1015.9
20260906065204 23 216 1.6 8.0 0.00 0.00 0.00 61 1015.9
20260906065004 23 217 4.8 8.0 0.00 0.00 0.00 61 1015.9
20260906064804 23 217 4.8 8.0 0.00 0.00 0.00 61 1015.9
20260906064604 23 218 4.8 8.0 0.00 0.00 0.00 61 1015.8
20260906064404 23 219 4.8 8.0 0.00 0.00 0.00 61 1015.9
20260906064204 23 221 4.8 8.0 0.00 0.00 0.00 60 1015.9
20260906064004 23 221 4.8 8.0 0.00 0.00 0.00 60 1015.8
20260906063804 23 223 4.8 9.7 0.00 0.00 0.00 60 1015.7
20260906063604 23 223 6.4 11.3 0.00 0.00 0.00 60 1015.7
20260906063404 23 224 4.8 11.3 0.00 0.00 0.00 60 1015.8
20260906063204 23 224 4.8 11.3 0.00 0.00 0.00 60 1015.7
20260906063004 23 226 6.4 14.5 0.00 0.00 0.00 59 1015.7
20260906062825 23 227 8.0 14.5 0.00 0.00 0.00 59 1015.6
20260906062604 23 228 8.0 14.5 0.00 0.00 0.00 59 1015.5
20260906062404 23 228 8.0 14.5 0.00 0.00 0.00 59 1015.5
20260906062225 23 229 9.7 14.5 0.00 0.00 0.00 59 1015.4
20260906062004 23 230 11.3 16.1 0.00 0.00 0.00 59 1015.4
20260906061825 23 231 11.3 16.1 0.00 0.00 0.00 59 1015.3
20260906061604 23 233 11.3 16.1 0.00 0.00 0.00 59 1015.3
20260906061404 23 236 11.3 16.1 0.00 0.00 0.00 59 1015.3
20260906061204 23 241 11.3 16.1 0.00 0.00 0.00 59 1015.3
20260906061004 23 245 9.7 16.1 0.00 0.00 0.00 59 1015.2
20260906060804 23 247 9.7 16.1 0.00 0.00 0.00 58 1015.2
20260906060604 23 248 11.3 16.1 0.00 0.00 0.00 58 1015.2
20260906060404 23 248 9.7 16.1 0.00 0.00 0.00 58 1015.2
20260906060225 23 247 8.0 16.1 0.00 0.00 0.00 58 1015.2
20260906060004 23 243 9.7 16.1 0.00 0.00 0.00 57 1015.1
20260906055804 23 241 9.7 16.1 0.00 0.00 0.00 57 1015.2
20260906055604 23 238 11.3 16.1 0.00 0.00 0.00 57 1015.2
20260906055404 24 236 9.7 14.5 0.00 0.00 0.00 56 1015.2
20260906055204 24 233 9.7 16.1 0.00 0.00 0.00 56 1015.4
20260906055004 24 231 11.3 16.1 0.00 0.00 0.00 56 1015.5
20260906054825 24 230 9.7 16.1 0.00 0.00 0.00 56 1015.5
20260906054604 24 228 9.7 16.1 0.00 0.00 0.00 55 1015.6
20260906054404 24 226 9.7 19.3 0.00 0.00 0.00 55 1015.6
20260906054204 24 225 11.3 19.3 0.00 0.00 0.00 54 1015.6
20260906054004 24 223 9.7 19.3 0.00 0.00 0.00 54 1015.7
20260906053806 24 221 9.7 19.3 0.00 0.00 0.00 54 1015.7
20260906053625 25 220 12.9 19.3 0.00 0.00 0.00 55 1015.7
20260906053404 25 216 8.0 16.1 0.00 0.00 0.00 55 1015.8
20260906053204 25 214 9.7 16.1 0.00 0.00 0.00 54 1015.9
20260906053004 25 213 8.0 16.1 0.00 0.00 0.00 55 1015.9
20260906052804 25 212 9.7 16.1 0.00 0.00 0.00 54 1016.0
20260906052604 24 210 11.3 16.1 0.00 0.00 0.00 54 1016.0
20260906052425 24 211 9.7 16.1 0.00 0.00 0.00 54 1016.1
20260906052204 24 211 9.7 14.5 0.00 0.00 0.00 55 1016.0
20260906052004 24 210 6.4 14.5 0.00 0.00 0.00 55 1016.1
20260906051804 24 211 8.0 16.1 0.00 0.00 0.00 55 1016.1
20260906051604 24 214 8.0 19.3 0.00 0.00 0.00 55 1016.2
20260906051404 23 215 6.4 19.3 0.00 0.00 0.00 54 1016.2
20260906051204 23 216 6.4 19.3 0.00 0.00 0.00 53 1016.1
20260906051004 23 216 9.7 19.3 0.00 0.00 0.00 52 1016.2
20260906050804 23 216 11.3 19.3 0.00 0.00 0.00 52 1016.1
20260906050604 23 216 9.7 14.5 0.00 0.00 0.00 52 1016.1
20260906050404 23 216 9.7 14.5 0.00 0.00 0.00 51 1016.1
20260906050204 23 215 9.7 14.5 0.00 0.00 0.00 51 1016.1
20260906050004 23 215 9.7 12.9 0.00 0.00 0.00 51 1016.1
20260906045804 23 216 8.0 12.9 0.00 0.00 0.00 51 1016.1
20260906045604 24 214 8.0 12.9 0.00 0.00 0.00 50 1016.1
20260906045404 24 213 9.7 12.9 0.00 0.00 0.00 51 1016.1
20260906045204 24 214 8.0 12.9 0.00 0.00 0.00 50 1016.1
20260906045025 24 214 8.0 12.9 0.00 0.00 0.00 50 1016.1
20260906044804 24 214 8.0 12.9 0.00 0.00 0.00 49 1016.1
20260906044604 24 216 6.4 16.1 0.00 0.00 0.00 50 1016.1
20260906044425 24 217 6.4 16.1 0.00 0.00 0.00 49 1016.2
20260906044204 24 218 9.7 16.1 0.00 0.00 0.00 49 1016.2
20260906044004 24 219 9.7 16.1 0.00 0.00 0.00 49 1016.2
20260906043804 24 219 11.3 16.1 0.00 0.00 0.00 49 1016.3
20260906043604 24 219 12.9 20.9 0.00 0.00 0.00 48 1016.2
20260906043404 25 217 11.3 20.9 0.00 0.00 0.00 48 1016.2
20260906043204 25 215 9.7 20.9 0.00 0.00 0.00 48 1016.2
20260906043004 25 213 9.7 20.9 0.00 0.00 0.00 48 1016.2
20260906042804 25 212 11.3 20.9 0.00 0.00 0.00 48 1016.2
20260906042604 24 213 8.0 20.9 0.00 0.00 0.00 48 1016.2
20260906042404 24 216 8.0 20.9 0.00 0.00 0.00 48 1016.2
20260906042225 24 217 6.4 20.9 0.00 0.00 0.00 49 1016.2
20260906042004 24 218 12.9 20.9 0.00 0.00 0.00 48 1016.1
20260906041804 24 220 12.9 20.9 0.00 0.00 0.00 48 1016.0
20260906041604 24 221 9.7 14.5 0.00 0.00 0.00 48 1015.9
20260906041404 25 221 9.7 11.3 0.00 0.00 0.00 49 1015.8
20260906041204 25 222 8.0 11.3 0.00 0.00 0.00 49 1015.8
20260906041025 25 223 8.0 11.3 0.00 0.00 0.00 49 1015.9
20260906040804 25 224 8.0 11.3 0.00 0.00 0.00 49 1015.9
20260906040604 25 224 9.7 11.3 0.00 0.00 0.00 49 1015.9
20260906040404 25 225 8.0 11.3 0.00 0.00 0.00 48 1015.9
20260906040204 25 225 8.0 12.9 0.00 0.00 0.00 49 1015.9
20260906040004 25 226 8.0 12.9 0.00 0.00 0.00 49 1016.0
20260906035827 25 226 8.0 14.5 0.00 0.00 0.00 49 1015.9
20260906035604 25 227 9.7 14.5 0.00 0.00 0.00 49 1016.0
20260906035404 25 227 9.7 14.5 0.00 0.00 0.00 49 1015.9
20260906035204 25 228 11.3 14.5 0.00 0.00 0.00 49 1016.1
20260906035004 25 229 11.3 16.1 0.00 0.00 0.00 49 1016.1
20260906034804 25 229 11.3 16.1 0.00 0.00 0.00 49 1016.1
20260906034625 25 230 11.3 16.1 0.00 0.00 0.00 49 1016.1
20260906034404 25 230 12.9 16.1 0.00 0.00 0.00 49 1016.2
20260906034225 25 230 12.9 16.1 0.00 0.00 0.00 48 1016.1
20260906034025 25 230 11.3 14.5 0.00 0.00 0.00 48 1016.1
20260906033804 24 228 11.3 14.5 0.00 0.00 0.00 49 1016.1
20260906033604 24 227 11.3 16.1 0.00 0.00 0.00 49 1016.1
20260906033404 24 226 9.7 16.1 0.00 0.00 0.00 49 1016.1
20260906033225 24 225 9.7 16.1 0.00 0.00 0.00 50 1016.1
20260906033025 24 222 11.3 16.1 0.00 0.00 0.00 50 1016.2
20260906032804 24 221 12.9 16.1 0.00 0.00 0.00 49 1016.1
20260906032604 24 219 9.7 14.5 0.00 0.00 0.00 49 1016.1
20260906032404 24 219 9.7 12.9 0.00 0.00 0.00 49 1016.1
20260906032204 24 219 11.3 12.9 0.00 0.00 0.00 48 1016.2
20260906032004 24 220 9.7 12.9 0.00 0.00 0.00 48 1016.2
20260906031804 24 219 9.7 12.9 0.00 0.00 0.00 48 1016.2
20260906031604 24 219 9.7 14.5 0.00 0.00 0.00 48 1016.2
20260906031404 24 219 8.0 14.5 0.00 0.00 0.00 48 1016.2
20260906031204 24 218 8.0 14.5 0.00 0.00 0.00 48 1016.2
20260906031004 24 219 8.0 14.5 0.00 0.00 0.00 48 1016.1
20260906030804 24 219 9.7 14.5 0.00 0.00 0.00 48 1016.1
20260906030604 24 219 11.3 16.1 0.00 0.00 0.00 48 1016.0
20260906030404 24 218 11.3 16.1 0.00 0.00 0.00 48 1016.0
20260906030204 24 218 11.3 16.1 0.00 0.00 0.00 48 1016.0
20260906030004 24 218 11.3 16.1 0.00 0.00 0.00 48 1016.1
20260906025804 24 219 11.3 16.1 0.00 0.00 0.00 47 1016.1
20260906025604 24 220 12.9 14.5 0.00 0.00 0.00 47 1016.0
20260906025404 24 223 9.7 14.5 0.00 0.00 0.00 47 1016.1
20260906025204 24 224 9.7 14.5 0.00 0.00 0.00 47 1015.9
20260906025025 24 224 8.0 12.9 0.00 0.00 0.00 47 1016.0
20260906024804 25 223 9.7 14.5 0.00 0.00 0.00 47 1015.9
20260906024604 25 224 9.7 14.5 0.00 0.00 0.00 47 1015.9
20260906024425 25 224 9.7 14.5 0.00 0.00 0.00 47 1015.9
20260906024204 25 224 9.7 16.1 0.00 0.00 0.00 47 1015.9
20260906024004 25 225 9.7 16.1 0.00 0.00 0.00 46 1015.9
20260906023804 25 226 11.3 16.1 0.00 0.00 0.00 46 1015.8
20260906023604 25 227 12.9 16.1 0.00 0.00 0.00 46 1015.8
20260906023426 25 227 12.9 16.1 0.00 0.00 0.00 46 1015.8
20260906023204 25 227 11.3 14.5 0.00 0.00 0.00 46 1015.7
20260906023004 25 227 11.3 14.5 0.00 0.00 0.00 46 1015.7
20260906022804 25 227 11.3 14.5 0.00 0.00 0.00 46 1015.7
20260906022604 25 228 11.3 14.5 0.00 0.00 0.00 46 1015.7
20260906022404 25 228 9.7 16.1 0.00 0.00 0.00 46 1015.7
20260906022204 25 229 9.7 16.1 0.00 0.00 0.00 46 1015.6
20260906022025 25 229 11.3 16.1 0.00 0.00 0.00 45 1015.6
20260906021827 25 229 11.3 16.1 0.00 0.00 0.00 45 1015.7
20260906021604 25 229 11.3 16.1 0.00 0.00 0.00 45 1015.6
20260906021404 25 229 11.3 14.5 0.00 0.00 0.00 45 1015.6
20260906021204 25 229 9.7 14.5 0.00 0.00 0.00 46 1015.6
20260906021025 25 229 11.3 14.5 0.00 0.00 0.00 46 1015.5
20260906020804 25 228 11.3 14.5 0.00 0.00 0.00 46 1015.5
20260906020604 25 227 11.3 14.5 0.00 0.00 0.00 46 1015.6
20260906020404 25 226 12.9 14.5 0.00 0.00 0.00 46 1015.5
20260906020204 25 224 11.3 14.5 0.00 0.00 0.00 48 1015.5
20260906020026 25 224 9.7 14.5 0.00 0.00 0.00 48 1015.6
20260906015804 25 222 8.0 11.3 0.00 0.00 0.00 49 1015.6
20260906015604 25 220 8.0 9.7 0.00 0.00 0.00 49 1015.5
20260906015404 26 220 6.4 9.7 0.00 0.00 0.00 49 1015.5
20260906015225 26 221 6.4 9.7 0.00 0.00 0.00 49 1015.5
20260906015025 26 220 6.4 9.7 0.00 0.00 0.00 49 1015.4
20260906014804 26 213 6.4 9.7 0.00 0.00 0.00 49 1015.4
20260906014604 26 204 6.4 11.3 0.00 0.00 0.00 49 1015.4
20260906014404 26 194 6.4 12.9 0.00 0.00 0.00 50 1015.3
20260906014204 26 182 4.8 14.5 0.00 0.00 0.00 50 1015.3
20260906014004 26 178 4.8 14.5 0.00 0.00 0.00 50 1015.3
20260906013804 26 176 6.4 14.5 0.00 0.00 0.00 50 1015.3
20260906013604 26 175 6.4 14.5 0.00 0.00 0.00 50 1015.4
20260906013404 26 172 8.0 14.5 0.00 0.00 0.00 50 1015.3
20260906013204 26 170 8.0 14.5 0.00 0.00 0.00 50 1015.3
20260906013004 26 168 8.0 14.5 0.00 0.00 0.00 50 1015.3
20260906012804 26 167 11.3 16.1 0.00 0.00 0.00 50 1015.3
20260906012604 26 165 11.3 16.1 0.00 0.00 0.00 50 1015.4
20260906012404 26 164 11.3 16.1 0.00 0.00 0.00 50 1015.2
20260906012204 26 165 11.3 16.1 0.00 0.00 0.00 50 1015.3
20260906012004 26 167 11.3 16.1 0.00 0.00 0.00 50 1015.3
20260906011825 26 166 9.7 19.3 0.00 0.00 0.00 51 1015.3
20260906011604 26 170 9.7 19.3 0.00 0.00 0.00 51 1015.3
20260906011404 26 175 9.7 19.3 0.00 0.00 0.00 50 1015.4
20260906011204 26 180 6.4 19.3 0.00 0.00 0.00 50 1015.4
20260906011004 26 175 9.7 19.3 0.00 0.00 0.00 50 1015.4
20260906010804 26 176 8.0 19.3 0.00 0.00 0.00 49 1015.4
20260906010604 26 174 6.4 19.3 0.00 0.00 0.00 50 1015.5
20260906010404 26 168 8.0 20.9 0.00 0.00 0.00 50 1015.5
20260906010204 26 159 12.9 22.5 0.00 0.00 0.00 49 1015.6
20260906010004 26 154 12.9 24.1 0.00 0.00 0.00 49 1015.5
20260906005804 26 147 9.7 27.4 0.00 0.00 0.00 49 1015.5
20260906005604 26 143 12.9 27.4 0.00 0.00 0.00 49 1015.6
20260906005404 27 141 16.1 27.4 0.00 0.00 0.00 48 1015.5
20260906005204 27 138 12.9 27.4 0.00 0.00 0.00 48 1015.6
20260906005004 27 138 16.1 27.4 0.00 0.00 0.00 48 1015.6
20260906004804 27 136 17.7 32.2 0.00 0.00 0.00 48 1015.6
20260906004604 27 131 19.3 32.2 0.00 0.00 0.00 47 1015.6
20260906004404 27 127 16.1 32.2 0.00 0.00 0.00 47 1015.6
20260906004204 27 124 12.9 32.2 0.00 0.00 0.00 47 1015.6
20260906004004 27 123 19.3 32.2 0.00 0.00 0.00 46 1015.6
20260906003806 27 120 11.3 29.0 0.00 0.00 0.00 46 1015.6
20260906003604 27 118 12.9 29.0 0.00 0.00 0.00 45 1015.5
20260906003425 27 117 11.3 29.0 0.00 0.00 0.00 44 1015.6
20260906003204 27 116 11.3 29.0 0.00 0.00 0.00 43 1015.6
20260906003004 27 119 16.1 33.8 0.00 0.00 0.00 42 1015.6
20260906002804 27 124 14.5 38.6 0.00 0.00 0.00 42 1015.6
20260906002604 27 131 16.1 38.6 0.00 0.00 0.00 41 1015.6
20260906002404 28 136 19.3 38.6 0.00 0.00 0.00 40 1015.7
20260906002225 28 138 20.9 38.6 0.00 0.00 0.00 40 1015.7
20260906002004 28 140 27.4 38.6 0.00 0.00 0.00 39 1015.7
20260906001804 28 141 29.0 38.6 0.00 0.00 0.00 38 1015.8
20260906001604 28 141 27.4 35.4 0.00 0.00 0.00 37 1015.9
20260906001425 28 141 19.3 32.2 0.00 0.00 0.00 37 1015.9
20260906001204 28 145 17.7 30.6 0.00 0.00 0.00 37 1015.8
20260906001004 28 148 17.7 35.4 0.00 0.00 0.00 37 1015.9
20260906000804 28 147 20.9 35.4 0.00 0.00 0.00 37 1016.0
20260906000604 28 143 17.7 35.4 0.00 0.00 0.00 37 1015.8
20260906000404 29 138 19.3 35.4 0.00 0.00 0.00 36 1015.9
20260906000204 29 132 22.5 35.4 0.00 0.00 0.00 35 1015.9
20260906000025 29 126 20.9 35.4 0.00 0.00 0.00 33 1016.1
20260905235804 30 116 12.9 25.7 0.00 0.00 0.00 31 1016.0
20260905235604 30 117 11.3 22.5 0.00 0.00 0.00 31 1015.8
20260905235404 30 118 12.9 22.5 0.00 0.00 0.00 31 1015.7
20260905235204 30 115 11.3 22.5 0.00 0.00 0.00 31 1015.7
20260905235004 30 113 9.7 22.5 0.00 0.00 0.00 30 1015.6
20260905234804 30 114 12.9 22.5 0.00 0.00 0.00 30 1015.6
20260905234604 30 112 11.3 22.5 0.00 0.00 0.00 31 1015.5
20260905234404 30 109 12.9 22.5 0.00 0.00 0.00 31 1015.5
20260905234204 30 106 11.3 22.5 0.00 0.00 0.00 32 1015.5
20260905234004 30 101 12.9 22.5 0.00 0.00 0.00 31 1015.4
20260905233825 30 101 11.3 22.5 0.00 0.00 0.00 31 1015.3
20260905233604 30 100 11.3 22.5 0.00 0.00 0.00 30 1015.3
20260905233425 30 98 8.0 16.1 0.00 0.00 0.00 30 1015.2
20260905233204 30 100 9.7 19.3 0.00 0.00 0.00 30 1015.1
20260905233004 30 104 8.0 19.3 0.00 0.00 0.00 30 1015.2
20260905232804 30 100 9.7 20.9 0.00 0.00 0.00 30 1015.1
20260905232625 30 98 9.7 24.1 0.00 0.00 0.00 29 1015.1
20260905232404 30 103 11.3 24.1 0.00 0.00 0.00 29 1015.1
20260905232204 30 105 9.7 24.1 0.00 0.00 0.00 29 1015.1
20260905232004 30 105 12.9 24.1 0.00 0.00 0.00 29 1015.1
20260905231804 30 113 12.9 24.1 0.00 0.00 0.00 30 1015.1
20260905231604 30 120 9.7 22.5 0.00 0.00 0.00 31 1015.1
20260905231404 30 121 11.3 22.5 0.00 0.00 0.00 30 1015.1
20260905231204 30 121 9.7 22.5 0.00 0.00 0.00 30 1015.1
20260905231004 30 121 12.9 22.5 0.00 0.00 0.00 32 1015.1
20260905230804 30 116 14.5 22.5 0.00 0.00 0.00 32 1015.2
20260905230625 30 111 11.3 22.5 0.00 0.00 0.00 33 1015.1
20260905230404 30 107 8.0 22.5 0.00 0.00 0.00 34 1015.0
20260905230204 30 104 12.9 22.5 0.00 0.00 0.00 33 1015.1
20260905230004 30 102 12.9 25.7 0.00 0.00 0.00 32 1015.1
20260905225804 30 101 8.0 25.7 0.00 0.00 0.00 31 1015.1
20260905225606 30 101 12.9 25.7 0.00 0.00 0.00 30 1015.1
20260905225425 30 101 12.9 25.7 0.00 0.00 0.00 30 1015.1
20260905225204 30 105 14.5 25.7 0.00 0.00 0.00 30 1015.1
20260905225004 30 104 11.3 22.5 0.00 0.00 0.00 30 1015.0
20260905224825 30 104 6.4 19.3 0.00 0.00 0.00 32 1015.0
20260905224604 30 103 8.0 19.3 0.00 0.00 0.00 32 1014.9
20260905224404 30 104 9.7 20.9 0.00 0.00 0.00 32 1014.9
20260905224204 30 103 9.7 22.5 0.00 0.00 0.00 32 1014.9
20260905224004 30 105 11.3 22.5 0.00 0.00 0.00 31 1015.0
20260905223825 31 106 9.7 22.5 0.00 0.00 0.00 31 1015.0
20260905223604 31 107 12.9 24.1 0.00 0.00 0.00 31 1014.9
20260905223404 30 107 11.3 24.1 0.00 0.00 0.00 30 1014.9
20260905223204 30 107 11.3 24.1 0.00 0.00 0.00 31 1015.0
20260905223004 30 107 9.7 24.1 0.00 0.00 0.00 32 1014.9
20260905222804 30 108 12.9 24.1 0.00 0.00 0.00 32 1014.8
20260905222604 30 109 11.3 19.3 0.00 0.00 0.00 31 1014.9
20260905222404 30 109 8.0 20.9 0.00 0.00 0.00 32 1014.9
20260905222204 30 113 8.0 20.9 0.00 0.00 0.00 33 1014.9
20260905222004 30 112 8.0 25.7 0.00 0.00 0.00 33 1014.8
20260905221804 30 110 9.7 25.7 0.00 0.00 0.00 33 1014.8
20260905221604 30 108 11.3 25.7 0.00 0.00 0.00 32 1014.7
20260905221404 31 108 11.3 25.7 0.00 0.00 0.00 30 1014.8
20260905221204 31 104 14.5 25.7 0.00 0.00 0.00 28 1014.7
20260905221025 31 101 12.9 25.7 0.00 0.00 0.00 29 1014.7
20260905220804 31 96 9.7 25.7 0.00 0.00 0.00 29 1014.8
20260905220625 31 96 8.0 27.4 0.00 0.00 0.00 29 1014.8
20260905220404 31 95 12.9 27.4 0.00 0.00 0.00 28 1014.8
20260905220204 31 96 14.5 30.6 0.00 0.00 0.00 29 1014.8
20260905220004 31 99 17.7 30.6 0.00 0.00 0.00 29 1014.8
20260905215825 31 102 16.1 30.6 0.00 0.00 0.00 28 1014.8
20260905215604 32 102 16.1 30.6 0.00 0.00 0.00 28 1014.7
20260905215404 32 102 14.5 30.6 0.00 0.00 0.00 29 1014.7
20260905215204 32 98 19.3 30.6 0.00 0.00 0.00 29 1014.7
20260905215004 32 97 19.3 30.6 0.00 0.00 0.00 28 1014.7
20260905214804 32 97 14.5 30.6 0.00 0.00 0.00 28 1014.8
20260905214604 31 102 12.9 32.2 0.00 0.00 0.00 30 1014.8
20260905214404 31 106 14.5 32.2 0.00 0.00 0.00 31 1014.9
20260905214204 31 111 14.5 32.2 0.00 0.00 0.00 31 1015.0
20260905214004 31 112 14.5 32.2 0.00 0.00 0.00 30 1015.1
20260905213804 32 109 19.3 32.2 0.00 0.00 0.00 29 1015.0
20260905213604 32 107 17.7 32.2 0.00 0.00 0.00 29 1015.0
20260905213404 32 104 19.3 32.2 0.00 0.00 0.00 30 1015.0
20260905213204 31 99 12.9 30.6 0.00 0.00 0.00 29 1015.1
20260905213004 31 98 14.5 20.9 0.00 0.00 0.00 29 1015.1
20260905212804 31 99 11.3 16.1 0.00 0.00 0.00 29 1015.1
20260905212604 31 96 9.7 16.1 0.00 0.00 0.00 29 1015.1
20260905212404 31 91 12.9 16.1 0.00 0.00 0.00 29 1015.2
20260905212204 31 86 6.4 9.7 0.00 0.00 0.00 29 1015.2
20260905212004 31 80 6.4 9.7 0.00 0.00 0.00 29 1015.2
20260905211804 31 67 4.8 9.7 0.00 0.00 0.00 30 1015.3
20260905211604 31 59 4.8 9.7 0.00 0.00 0.00 29 1015.1